Weather History for CYOW - October, 2012

Change the Weather History Date:

Tuesday, October 2, 2012

  Actual Average Record
Temperature  
Mean Temperature 54 °F -  
Max Temperature 68 °F 54 °F 77 °F (2013)
Min Temperature 41 °F 36 °F 30 °F (1997)
Degree Days  
Heating Degree Days 10    
Growing Degree Days 4 (Base 50)    
Moisture  
Dew Point 50 °F    
Average Humidity 85    
Maximum Humidity 100    
Minimum Humidity 59    
Precipitation  
Precipitation 0.00 in 0.10 in - ()
Sea Level Pressure  
Sea Level Pressure 29.96 in    
Wind  
Wind Speed 4 mph ()    
Max Wind Speed 6 mph    
Max Gust Speed -    
Visibility 14.4 miles    
Events Fog    
Averages and records for this station are not official NWS values.
T = Trace of Precipitation, MM = Missing Value Source: Averaged Metar Reports

Daily Weather History Graph

Daily Weather History Graph

Search for Another Location

Airport or City:

Trip Planner

Search our weather history database for the weather conditions in past years. The results will help you decide how hot, cold, wet, or windy it might be!

Date:

Astronomy

Oct. 02, 2012 Rise Set
Actual Time 7:02 AM EDT 6:40 PM EDT
Civil Twilight 6:33 AM EDT 7:09 PM EDT
Nautical Twilight 5:58 AM EDT 7:43 PM EDT
Astronomical Twilight 5:24 AM EDT 8:18 PM EDT
Moon 7:41 PM EDT (10/2) 9:36 AM EDT (10/2)
Length of Visible Light 12h 36m
Length of Day
11h 37m
Waning Gibbous, 94% of the Moon is Illuminated
Oct 2
Waning Gibbous
Oct 8
Last Quarter
Oct 15
New
Oct 21
First Quarter
Oct 29
Full

Hourly Weather History & Observations

Time (EDT) Temp. Windchill Dew Point Humidity Pressure Visibility Wind Dir Wind Speed Gust Speed Precip Events Conditions
12:00 AM 51.8 °F - 46.4 °F 82% 29.88 in 15.0 mi SSW 4.6 mph - N/A   Mostly Cloudy
1:00 AM 50.0 °F - 44.6 °F 82% 29.88 in 15.0 mi SSW 3.5 mph - N/A   Mostly Cloudy
2:00 AM 48 °F - 45 °F 87% 29.90 in 15 mi South 4.6 mph - -   Clear
2:00 AM 48.2 °F - 44.6 °F 87% 29.89 in 15.0 mi SSW 4.6 mph - N/A   Mostly Cloudy
3:00 AM 46.4 °F 43.5 °F 44.6 °F 93% 29.89 in 15.0 mi SW 5.8 mph - N/A   Mostly Cloudy
4:00 AM 46.4 °F 45.2 °F 46.4 °F 100% 29.90 in 15.0 mi West 3.5 mph - N/A   Mostly Cloudy
5:00 AM 42.8 °F 39.3 °F 42.8 °F 100% 29.91 in 15.0 mi South 5.8 mph - N/A Fog Shallow Fog
6:00 AM 42.8 °F 41.1 °F 42.8 °F 100% 29.93 in 15.0 mi South 3.5 mph - N/A   Scattered Clouds
7:00 AM 44.6 °F 42.2 °F 44.6 °F 100% 29.95 in 15.0 mi SSW 4.6 mph - N/A   Scattered Clouds
8:00 AM 47 °F - 47 °F 100% 29.98 in 15 mi SSW 5.8 mph - -   Scattered Clouds
8:00 AM 46.4 °F 43.5 °F 46.4 °F 100% 29.97 in 15.0 mi SSW 5.8 mph - N/A   Mostly Cloudy
9:00 AM 51.8 °F - 48.2 °F 88% 29.96 in 15.0 mi NNW 3.5 mph - N/A   Overcast
10:00 AM 53.6 °F - 50.0 °F 88% 29.98 in 15.0 mi Calm Calm - N/A   Overcast
11:00 AM 55.4 °F - 51.8 °F 88% 29.99 in 15.0 mi SSE 3.5 mph - N/A   Overcast
12:00 PM 59.0 °F - 53.6 °F 82% 29.98 in 15.0 mi SE 2.3 mph - N/A   Overcast
1:00 PM 62.6 °F - 53.6 °F 72% 29.96 in 15.0 mi SSW 5.8 mph - N/A   Mostly Cloudy
2:00 PM 65 °F - 54 °F 59% 29.96 in 15 mi Calm Calm - -   Mostly Cloudy
2:00 PM 64.4 °F - 53.6 °F 68% 29.96 in 15.0 mi Calm Calm - N/A   Mostly Cloudy
3:00 PM 68.0 °F - 53.6 °F 60% 29.96 in 15.0 mi South 5.8 mph - N/A   Scattered Clouds
4:00 PM 68.0 °F - 55.4 °F 64% 29.96 in 15.0 mi Calm Calm - N/A   Scattered Clouds
5:00 PM 66.2 °F - 53.6 °F 64% 29.96 in 15.0 mi South 2.3 mph - N/A   Scattered Clouds
6:00 PM 64.4 °F - 53.6 °F 68% 29.98 in 15.0 mi SSE 4.6 mph - N/A   Scattered Clouds
7:00 PM 57.2 °F - 51.8 °F 82% 29.99 in 15.0 mi ESE 5.8 mph - N/A   Partly Cloudy
8:00 PM 56 °F - 53 °F 87% 30.01 in 15 mi SSE 5.8 mph - -   Scattered Clouds
8:00 PM 55.4 °F - 53.6 °F 94% 30.01 in 15.0 mi SSE 5.8 mph - N/A   Scattered Clouds
9:00 PM 53.6 °F - 51.8 °F 94% 30.02 in 15.0 mi SSE 4.6 mph - N/A   Partly Cloudy
10:00 PM 55.4 °F - 53.6 °F 94% 30.03 in 6.0 mi Calm Calm - N/A   Partly Cloudy
11:00 PM 51.8 °F - 51.8 °F 100% 30.04 in 8.0 mi NE 4.6 mph - N/A   Partly Cloudy